SES-14

Last updated on Sun Jul 06 2025 00:02:46 GMT+0000 (Coordinated Universal Time)

1 43175U 18012B 25186.12703257 -.00000263 00000+0 00000+0 0 9991 2 43175 0.0116 12.7569 0001275 91.0180 177.8225 1.00271765 3547
UTC large
Height (km)
Speed (km/s)
/
Latitude / Longitude
Inclination (degrees)
Orbital Period (minutes)
Azimuth
Elevation
Range (km)
Doppler Factor

Next 0 passes for location: London (51.5072 / 0.1276)

Sorry there are no passes over London.